星链-32581 (STARLINK-32581)

导读

STARLINK-32581是美国太空探索技术公司SpaceX星链星座的一员,于2024年11月30日发射入轨,隶属于星链网络的扩容部署任务。星链系统旨在为全球提供覆盖偏远地区的高速卫星互联网服务,该卫星的入轨进一步完善了低轨星座的通信覆盖能力,助力星链全球互联网接入服务的推进。

基本信息
目录编号:
62184
目录名称:
STARLINK-32581
国际标识:
2024-225X
轨道中心:
EARTH
卫星名称:
星链-32581
卫星全名:
星链-32581 (STARLINK-32581)
卫星状态:
在轨 (已飞行564 天)
发射日期:
2024-11-30 UTC
国别 :
美国 (US)
星等 :
--
轨道信息
数据来源 国际轨道数据 AOE轨道数据
星历时间 2026-06-17T22:32:48+0800
6小时前
查看轨道信息
2026-06-16T10:00:00+0800
1天前
查看轨道信息
半长轴 6950.171km 6950.217km
偏心率 0.0003456 0.0003272
轨道倾角 70.001° 69.998°
近地点辐角 268.916° 275.315°
升交点赤经 262.438° 266.274°
平近点角 91.160° 153.249°
近地点 569.632km 569.805km
远地点 574.436km 574.355km
周期 96.107分钟 96.107分钟
每日圈数 14.983373 14.983223
详细信息
固有亮度:
5
最大亮度:
2.5
卫星平台:
Starlink V1.0
覆盖范围:
全球
运营商:
太空探索技术公司
运营商所在国:
美国
制造商(研发单位):
太空探索技术公司
制造商所在国:
美国
使用方式:
暂无
卫星简介
Starlink 计划是 SpaceX 推出的全球卫星互联网项目,通过发射低轨道卫星,为全球尤其是偏远地区提供高速、低延迟的互联网服务。自 2019 年起,Starlink 已部署数千颗卫星,旨在缩小全球数字鸿沟,推动互联网普及。该项目还为军事、航空等行业提供通信支持,带来广泛经济效益。
2D轨道图
3D轨道图
轨道高度分析图
轨道倾角分析图
轨道综合分析图
查看轨道综合分析图